Weather Service Report


370 
FPUS83 KFGF 251531
OPUFGF
PRAIRIE TO PINES WEATHER ROUNDUP
NATIONAL WEATHER SERVICE EASTERN NORTH DAKOTA/GRAND FORKS ND
1000 AM CDT WED MAY 25 2016

 **SATELLITE DATA USED TO AUGMENT SKY COVER AT AUTOMATED STATIONS**
 *****  WEATHER ACROSS EASTERN NORTH DAKOTA  *****
  
CITY           SKY/WX    TMP DP  RH WIND       PRES   REMARKS
GRAND FORKS    CLOUDY    67  55  65 E12       29.80F                  
GRAND FORKS AF LGT RAIN  66  55  68 NE6       29.74F                  
GRAND CITY NWS   N/A     66 N/A N/A E13         N/A                   
BUXTON           N/A     66  64  93 E6          N/A                   
DEVILS LAKE    NOT AVBL                                               
FARGO          LGT RAIN  64  58  80 E10       29.76S                  
WAHPETON ARPT  CLOUDY    63  55  77 SE8       29.78F                  
$$

 *****  WEATHER ACROSS CENTRAL AND WESTERN NORTH DAKOTA  *****
  
CITY           SKY/WX    TMP DP  RH WIND       PRES   REMARKS
JAMESTOWN      NOT AVBL                                               
BISMARCK       LGT RAIN  61  57  87 CALM      29.80F                  
MINOT          LGT RAIN  58  55  90 NE8       29.83R                  
MINOT AFB      LGT RAIN  57  56  94 NE10      29.83R                  
GARRISON         N/A     58  55  90 E8        29.81S                  
WILLISTON      LGT RAIN  52  49  89 NW16      29.83S                  
DICKINSON      CLOUDY    57  51  80 SW10      29.80F                  
HETTINGER      CLOUDY    59  49  69 S8        29.83F                  
$$

 *****  OTHER OBSERVATIONS NORTHEAST NORTH DAKOTA  *****
  
CITY           SKY/WX    TMP DP  RH WIND       PRES   REMARKS
WALHALLA       FAIR      66  55  68 CALM      29.84F                  
LANGDON        FAIR      68  54  60 E10       29.84F                  
CAVALIER       FAIR      66  55  68 E6        29.83F                  
GRAFTON        FAIR      68  57  68 E8        29.82F                  
CANDO          PTSUNNY   59  57  94 SW6       29.88R FOG              
FORT TOTTEN      N/A     59  54  82 N2        29.95S                  
ROLLA          FAIR      57  50  77 CALM      29.89R THUNDER          
RUGBY          LGT RAIN  57  57 100 CALM      29.86S                  
 ***** THE ABOVE OBSERVATIONS ARE NON NWS ARE NOT QUALITY
        CONTROLLED AND MAY MIS-REPORT RAIN FOR SNOW...
$$

 *****  OTHER OBSERVATIONS SOUTHEAST NORTH DAKOTA *****
  
CITY           SKY/WX    TMP DP  RH WIND       PRES   REMARKS
COOPERSTOWN    NOT AVBL                                               
VALLEY CITY    RAIN      59  59 100 SW12      29.83R                  
OAKES            N/A    N/A N/A N/A MISG        N/A                   
GWINNER        FAIR      63  61  94 NE6       29.78F                  
SHEYENNE NWR     N/A     62  59  91 CALM      29.95S                  
BUFFALO          N/A     64  56  73 SE12        N/A                   
WYNDMERE         N/A     64  61  88 SE12        N/A                   
 ***** THE ABOVE OBSERVATIONS ARE NON NWS ARE NOT QUALITY
       CONTROLLED AND MAY MIS-REPORT RAIN FOR SNOW...
$$

  *****  WEATHER ACROSS NORTHERN MINNESOTA  *****     
  
CITY           SKY/WX    TMP DP  RH WIND       PRES   REMARKS
FLAG ISLAND    CLOUDY    63  55  77 SE6       29.93S                  
WARROAD        CLOUDY    63  57  82 NE9       29.91F                  
ROSEAU         CLOUDY    70  57  64 E18       29.87F                  
HALLOCK        CLOUDY    70  55  60 E13       29.82F                  
THF RVR FALLS  CLOUDY    66  55  68 E17G23    29.84F                  
HALSTAD        NOT AVBL                                               
FOSSTON        CLOUDY    63  55  77 E13G18    29.83F                  
BAUDETTE       CLOUDY    59  53  80 E12       29.94F                  
WASKISH        CLOUDY    61  57  88 E9        29.92F                  
CROOKSTON      CLOUDY    68  57  68 SE9       29.80F                  
$$
  *****  WEATHER ACROSS CENTRAL AND WEST MINNESOTA  *****     
  
CITY           SKY/WX    TMP DP  RH WIND       PRES   REMARKS
BEMIDJI        CLOUDY    61  56  83 E12       29.89F                  
PARK RAPIDS    CLOUDY    62  55  77 E10       29.88F                  
WADENA         CLOUDY    63  57  82 SE12      29.87S                  
DETROIT LAKES  PTSUNNY   64  55  72 SE10      29.83F                  
MOORHEAD       CLOUDY    63  61  94 S7G25     29.78F VSB 1            
FERGUS FALLS   LGT RAIN  64  57  77 SE16G22   29.76F                  
ELBOW LAKE     RAIN      63  59  87 SE14      29.79F                  
MORRIS MN      CLOUDY    64  61  88 SE24      29.75F                  
STAPLES        CLOUDY    63  55  77 E10       29.87F                  
WHEATON        CLOUDY    64  61  88 E15       29.76F                  
$$
  *****  WEATHER ELSEWHERE ACROSS MINNESOTA  *****     
  
CITY           SKY/WX    TMP DP  RH WIND       PRES   REMARKS
DULUTH         NOT AVBL                                               
INTRNTL FALLS  NOT AVBL                                               
ELY            CLOUDY    63  52  67 SE8       30.02S HAZE             
CLOQUET        FOG       50  48  93 E12G25    30.00S VSB 3/4          
BRAINERD       CLOUDY    61  56  83 VRB5      29.91F                  
HIBBING        PTSUNNY   58  52  80 SE12      29.99S                  
ALEXANDRIA     LGT RAIN  62  58  86 SE13G20   29.84F                  
SAINT CLOUD    TSTM      62  61  96 S10       29.93R FOG              
MINNEAPOLIS    LGT RAIN  68  63  84 SE8       29.91R                  
$$

  *****  WEATHER ACROSS SOUTH DAKOTA  *****
  
CITY           SKY/WX    TMP DP  RH WIND       PRES   REMARKS
SIOUX FALLS    PTSUNNY   68  60  75 S13       29.79S                  
BROOKINGS      PTSUNNY   66  59  77 S16G22    29.77                   
WATERTOWN      CLOUDY    63  59  87 S12       29.74F                  
HURON          CLOUDY    63  59  87 W14       29.76R                  
SISSETON         N/A     63  60  90 E9        29.74S                  
ABERDEEN       CLOUDY    62  58  86 N13       29.74F                  
MITCHELL       CLOUDY    65  60  84 W7        29.78R                  
PIERRE         MOSUNNY   62  56  80 W13       29.78S                  
MOBRIDGE       CLOUDY    65  55  70 SE6       29.76S                  
RAPID CITY     SUNNY     60  51  72 S7        29.83F                  
$$

  *****  SOME WEATHER IN NEARBY STATES *****
  
CITY           SKY/WX    TMP DP  RH WIND       PRES   REMARKS
GLASGOW MT     PTSUNNY   51  45  79 E3        29.88S                  
GREAT FALLS MT SUNNY     53  41  63 SW16      29.90S                  
CHEYENNE WY    SUNNY     59  32  36 W22       30.01S                  
SCOTTSBLUFF NE SUNNY     60  46  59 W7        29.94S                  
OMAHA NE       PTSUNNY   68  63  84 SE15      29.87F                  
DES MOINES IA  CLOUDY    68  64  87 S7        29.90F                  
DAVENPORT IA   CLOUDY    74  62  66 SE10      29.96F                  
CHICAGO IL     CLOUDY    77  65  66 S12       30.00F                  
EAU CLAIRE WI  CLOUDY    75  59  57 SE12      29.93F                  
LA CROSSE WI   CLOUDY    73  61  65 S9        29.95R                  
$$

  *****  SOME NATIONAL WEATHER *****
  
CITY           SKY/WX    TMP DP  RH WIND       PRES   REMARKS
LA GUARDIA NY  MOSUNNY   79  51  37 NW10      30.06F                  
RALEIGH NC     MOSUNNY   80  60  50 SW5       30.23S                  
ATLANTA GA     MOSUNNY   80  54  40 SW9       30.26R                  
NEW ORLEANS LA PTSUNNY   86  73  65 S10       30.14R HX  93           
OKLAHOMA CITY  CLOUDY    78  72  81 S23G30    29.91R                  
ALBUQUERQUE NM SUNNY     65  16  15 CALM      30.15S                  
SALT LAKE CITY PTSUNNY   60  41  49 CALM      30.02R                  
LOS ANGELES CA MOSUNNY   60  51  72 CALM      30.07R                  
BOISE ID       SUNNY     55  42  61 NW5       30.00R                  
SEATTLE WA     CLOUDY    53  50  89 SW9       30.12S                  
$$

*** WEATHER ACROSS MANITOBA...SASKATCHEWAN AND ONTARIO ***
                ***ONTARIO***
  
CITY           SKY/WX    TMP DP  RH WIND       PRES   REMARKS
GERALDTON      MOSUNNY   55  41  58 E9        30.14S                  
THUNDER BAY    CLOUDY    50  45  81 SE13      30.13R                  
SIOUX LOOKOUT  CLOUDY    55  54  94 S8        30.05                   
TORONTO        PTSUNNY   79  54  41 W3        30.03R                  
BIG TROUT LK   CLOUDY    52  45  76 SE5       30.07F                  
PICKLE LAKE    PTSUNNY   59  48  67 SE9       30.05F                  
DRYDEN         CLOUDY    57  54  88 E6        30.03R                  
KENORA         PTSUNNY   59  55  88 E9        29.98R                  
$$      
                *** MANITOBA***
  
CITY           SKY/WX    TMP DP  RH WIND       PRES   REMARKS
BRANDON        CLOUDY    63  54  72 NE8       29.86S                  
DAUPHIN        CLOUDY    55  54  94 N6        29.93S                  
ISLAND LAKE    MOSUNNY   54  46  76 CALM      29.99F                  
PILOT MOUND      N/A     61  52  72 E5          N/A                   
THE PAS        PTSUNNY   55  46  71 SE7       29.96F                  
THOMPSON       MOSUNNY   54  41  62 VRB2      30.01F                  
WINNIPEG       CLOUDY    66  55  68 NE6       29.88F                  
LYNN LAKE      PTSUNNY   57  43  58 SW9       29.94S                  
CHURCHILL      LGT RAIN  34  32  93 SE20      30.06F WCI  22          
GILLAM         PTSUNNY   50  37  62 E6        30.05F                  
$$
                ***SASKATCHEWAN***
  
CITY           SKY/WX    TMP DP  RH WIND       PRES   REMARKS
ESTEVAN        LGT RAIN  54  46  76 E8        29.85S                  
KINDERSLEY     CLOUDY    48  45  87 NE3       29.90S                  
LLOYDMINSTER   MOSUNNY   54  46  76 S7        29.91S                  
PRINCE ALBERT  CLOUDY    48  46  93 E6        29.94R FOG              
REGINA         CLOUDY    50  43  76 SE5       29.91R                  
YORKTON        SUNNY     57  52  82 NE6       29.91F  C1F1C2F2C3F3C4F4C5F5C6F6C7F7C8F8C9F9CaFaCbFbCcFcCdFdCe!

Return to Home page


Western Regional Climate Center, wrcc@dri.edu